This demonstration page uses our WeatherBlox Daily Observations layout. Learn more.

39.08367, -84.50855

Hourly Observations for October 3, 2019

Temp ( °F °C ) Dew Point ( °F °C ) Humidity (%) Winds ( mph kmh ) Pressure ( in mb ) Visibility ( mi km ) Precip ( " mm )
12:53 am 00:53 Clear 69 20.6 67 19.4 93 93 Calm 29.93 1014 10 16.0934 0 0
1:53 am 01:53 Clear 67 19.4 66 18.9 97 97 Calm 29.94 1014 10 16.0934 0 0
2:53 am 02:53 Clear 67 19.4 65 18.3 93 93 Calm 29.94 1014 10 16.0934 0 0
3:53 am 03:53 Clear 66 18.9 65 18.3 96 96 Calm 29.94 1014 10 16.0934 0 0
4:53 am 04:53 Clear 66 18.9 65 18.3 96 96 Calm 29.95 1014 8 12.87472 0 0
5:20 am 05:20 Clear with Mist and Fog 63 17.2 63 17.2 100 100 Calm 29.96 1015 1.5 2.41401 0 0
5:30 am 05:30 Clear with Mist and Fog 64 17.8 64 17.8 100 100 Calm 29.96 1015 3 4.82802 0 0
5:36 am 05:36 Clear with Mist and Fog 65 18.3 65 18.3 100 100 Calm 29.96 1015 1.5 2.41401 0 0
5:47 am 05:47 Clear with Mist and Fog 66 19 66 19 100 100 Calm 29.96 1015 3 4.82802 0 0
5:53 am 05:53 Clear 65 18.3 65 18.3 100 100 Calm 29.96 1015 7 11.26538 0 0
6:33 am 06:33 Clear with Mist and Fog 64 17.8 64 17.8 100 100 Calm 29.98 1015 1.75 2.816345 0 0
6:50 am 06:50 Mostly Clear with Mist and Fog 63 17 63 17 100 100 Calm 29.98 1015 1.75 2.816345 0 0
6:53 am 06:53 Clear with Fog 64 17.8 63 17.2 96 96 Calm 29.98 1015 10 16.0934 0 0
7:53 am 07:53 Sunny 64 17.8 64 17.8 100 100 Calm 29.98 1015 10 16.0934 0 0
8:53 am 08:53 Sunny 70 21.1 67 19.4 90 90 Calm 29.98 1015 10 16.0934 0 0
9:53 am 09:53 Sunny 77 25 66 18.9 69 69 S 6 9 29.98 1015 10 16.0934 0 0
10:53 am 10:53 Sunny 84 28.9 65 18.3 53 53 SW 7 11 29.98 1015 10 16.0934 0 0
11:53 am 11:53 Sunny 87 30.6 66 18.9 50 50 W 9 15 29.98 1015 10 16.0934 0 0
12:53 pm 12:53 Partly Cloudy 90 32.2 67 19.4 47 47 WSW 15 24 29.97 1015 10 16.0934 0 0
1:53 pm 13:53 Partly Cloudy 93 33.9 65 18.3 40 40 W 14 22 29.96 1015 10 16.0934 0 0
2:53 pm 14:53 Mostly Sunny 94 34.4 65 18.3 38 38 WNW 14 22 29.94 1014 10 16.0934 0 0
3:53 pm 15:53 Mostly Cloudy 90 32.2 66 18.9 45 45 W 15 24 29.95 1014 10 16.0934 0 0
4:53 pm 16:53 Mostly Sunny 90 32.2 67 19.4 47 47 NW 13 20 29.96 1015 10 16.0934 0 0
5:53 pm 17:53 Sunny 87 30.6 67 19.4 51 51 W 13 20 29.98 1015 10 16.0934 0 0
6:53 pm 18:53 Sunny 83 28.3 66 18.9 57 57 NW 9 15 30.01 1016 10 16.0934 0 0
7:53 pm 19:53 Clear 81 27.2 63 17.2 54 54 NW 14 22 30.03 1017 10 16.0934 0 0
8:53 pm 20:53 Clear 77 25 62 16.7 60 60 N 12 19 30.06 1018 10 16.0934 0 0
9:53 pm 21:53 Clear 73 22.8 59 15 62 62 N 15 24 30.08 1019 10 16.0934 0 0
10:53 pm 22:53 Clear 71 21.7 58 14.4 63 63 NNW 8 13 30.1 1019 10 16.0934 0 0
11:53 pm 23:53 Clear 70 21.1 56 13.3 61 61 N 8 13 30.11 1020 10 16.0934 0 0

Powered by AerisWeather